Voltar ao catálogo

STARLINK-36597

AtivoComunicaçõesSSO
NORAD 67613·PAYLOAD·🇺🇸 United States

Lançado Jan 29, 2026 de Vandenberg Space Force Base

Loading…

Próximas Passagens (próximas 24 horas)

TLE

AtualizadoSource: CelesTrak SupGP

Época: Sep 14, 2026, 22:54 UTC

1 67613C 26018AA  26257.95465278  .00005162  00000+0  16025-3 0  2575
2 67613  97.2855 321.4409 0000736  94.1751  31.8356 15.33438400    15

Acompanhe STARLINK-36597 em tempo real com AllMySat

Download on the App Store